Location: Ústí nad Labem
(50.6611°N, 14.0531°E)
Time: 21:30:37
(UTC+02:00)

Altair - All Passes

Search period start: 19 April 2024 00:00
Search period end: 29 April 2024 00:00
Orbit: 1502 x 1682 km, 47.2° (Epoch: 18 April)

Date Brightness Start Highest point End Pass type
(mag) Time Alt. Az. Time Alt. Az. Time Alt. Az.
19 Apr - 00:29:05 10° W 00:38:44 66° SSW 00:48:00 10° ESE visible
19 Apr - 02:33:58 10° W 02:42:24 36° SW 02:50:34 10° SSE visible
19 Apr - 04:43:50 10° WSW 04:44:40 10° WSW 04:45:31 10° SW visible
19 Apr - 17:57:00 10° SSE 18:02:19 16° SE 18:07:34 10° E daylight
19 Apr - 19:55:53 10° SSW 20:05:07 43° SSE 20:14:06 10° E daylight
19 Apr - 21:59:14 10° WSW 22:09:07 70° S 22:18:39 10° E visible
20 Apr - 00:03:50 10° W 00:13:33 68° SSW 00:22:53 10° ESE visible
20 Apr - 02:08:41 10° W 02:17:18 39° SW 02:25:38 10° SSE visible
20 Apr - 04:16:47 10° WSW 04:19:41 12° WSW 04:22:35 10° SW visible
20 Apr - 17:32:40 10° SSE 17:37:17 14° SE 17:41:52 10° E daylight
20 Apr - 19:30:51 10° SSW 19:39:59 41° SE 19:48:53 10° E daylight
20 Apr - 21:34:01 10° WSW 21:43:55 69° SSE 21:53:28 10° E visible
20 Apr - 23:38:36 10° W 23:48:22 69° SSW 23:57:45 10° ESE visible
21 Apr - 01:43:25 10° W 01:52:12 41° SW 02:00:41 10° SSE visible
21 Apr - 03:50:43 10° W 03:54:42 13° SW 03:58:38 10° SSW visible
21 Apr - 17:08:31 10° SE 17:12:16 13° ESE 17:15:58 10° E daylight
21 Apr - 19:05:50 10° SSW 19:14:51 39° SE 19:23:39 10° E daylight
21 Apr - 21:08:48 10° WSW 21:18:43 68° SSE 21:28:18 10° E visible
21 Apr - 23:13:21 10° W 23:23:10 71° S 23:32:36 10° ESE visible
22 Apr - 01:18:09 10° W 01:27:05 43° SSW 01:35:43 10° SSE visible
22 Apr - 03:24:54 10° W 03:29:41 15° SW 03:34:25 10° SSW visible
22 Apr - 16:44:46 10° SE 16:47:14 11° ESE 16:49:42 10° ESE daylight
22 Apr - 18:40:50 10° SSW 18:49:43 37° SE 18:58:25 10° E daylight
22 Apr - 20:43:37 10° WSW 20:53:31 66° SSE 21:03:06 10° E visible
22 Apr - 22:48:06 10° W 22:57:58 72° S 23:07:27 10° ESE visible
23 Apr - 00:52:53 10° W 01:01:58 46° SSW 01:10:44 10° SE visible
23 Apr - 02:59:15 10° W 03:04:41 17° SW 03:10:02 10° SSW visible
23 Apr - 18:15:52 10° SSW 18:24:36 35° SE 18:33:10 10° E daylight
23 Apr - 20:18:25 10° WSW 20:28:19 65° SSE 20:37:55 10° E daylight
23 Apr - 22:22:51 10° W 22:32:46 73° S 22:42:18 10° ESE visible
24 Apr - 00:27:37 10° W 00:36:51 48° SSW 00:45:43 10° SE visible
24 Apr - 02:33:41 10° W 02:39:40 19° SW 02:45:32 10° SSW visible
24 Apr - 17:50:56 10° SSW 17:59:29 33° SE 18:07:53 10° E daylight
24 Apr - 19:53:14 10° WSW 20:03:08 63° SSE 20:12:44 10° E daylight
24 Apr - 21:57:36 10° W 22:07:33 73° S 22:17:08 10° ESE visible
25 Apr - 00:02:22 10° W 00:11:42 51° SSW 00:20:41 10° SE visible
25 Apr - 02:08:11 10° W 02:14:38 21° SW 02:20:57 10° S visible
25 Apr - 17:26:02 10° SSW 17:34:23 31° SE 17:42:35 10° E daylight
25 Apr - 19:28:03 10° SW 19:37:56 61° SSE 19:47:32 10° E daylight
25 Apr - 21:32:22 10° W 21:42:21 74° S 21:51:58 10° E visible
25 Apr - 23:37:06 10° W 23:46:34 53° SSW 23:55:39 10° SE visible
26 Apr - 01:42:43 10° W 01:49:36 22° SW 01:56:19 10° S visible
26 Apr - 17:01:09 10° S 17:09:17 29° SE 17:17:17 10° E daylight
26 Apr - 19:02:54 10° SW 19:12:45 59° SSE 19:22:20 10° E daylight
26 Apr - 21:07:07 10° W 21:17:08 74° S 21:26:47 10° E visible
26 Apr - 23:11:51 10° W 23:21:24 55° SSW 23:30:35 10° SE visible
27 Apr - 01:17:18 10° W 01:24:33 24° SW 01:31:37 10° S visible
27 Apr - 16:36:19 10° S 16:44:11 27° SE 16:51:57 10° E daylight
27 Apr - 18:37:45 10° SW 18:47:33 57° SSE 18:57:08 10° E daylight
27 Apr - 20:41:52 10° W 20:51:55 74° S 21:01:36 10° E visible
27 Apr - 22:46:37 10° W 22:56:15 58° SSW 23:05:31 10° SE visible
28 Apr - 00:51:55 10° W 00:59:30 26° SW 01:06:52 10° S visible
28 Apr - 16:11:32 10° S 16:19:06 25° SE 16:26:35 10° E daylight
28 Apr - 18:12:37 10° SW 18:22:22 55° SSE 18:31:55 10° E daylight
28 Apr - 20:16:39 10° W 20:26:42 74° S 20:36:25 10° E daylight
28 Apr - 22:21:21 10° W 22:31:04 60° SSW 22:40:25 10° SE visible
